Voltar ao catálogo

ARIANE 5 DEB

AtivoGTO
NORAD 48422·DEBRIS·🇫🇷 France

Lançado Oct 5, 2007 de Guiana Space Centre

Loading…

TLE

ObsoletoSource: Space-Track

Época: Sep 13, 2026, 19:35 UTC

1 48422U 07044E   26256.81613077 -.00000056  00000-0  18666-3 0  9991
2 48422   4.5768 357.6374 7192043  54.9512 352.6541  2.29227023106966

Acompanhe ARIANE 5 DEB em tempo real com AllMySat

Download on the App Store